Weather History for Alliance, NE

Change the Weather History Date:

Thursday, March 7, 2013

  Actual Average Record
Temperature  
Mean Temperature 42 °F 34 °F  
Max Temperature 65 °F 48 °F 68 °F (1901)
Min Temperature 19 °F 19 °F -13 °F (1943)
Degree Days  
Heating Degree Days 23 31  
Month to date heating degree days 196 228  
Since 1 July heating degree days 5309 5632  
Cooling Degree Days 0 0  
Month to date cooling degree days 0 0  
Year to date cooling degree days 0 0  
Moisture  
Dew Point 23 °F    
Average Humidity 57    
Maximum Humidity 96    
Minimum Humidity 18    
Precipitation  
Precipitation 0.00 in 0.02 in 0.89 in (1990)
Month to date precipitation 0.00 0.07  
Year to date precipitation 0.52 0.63  
Sea Level Pressure  
Sea Level Pressure 29.97 in    
Wind  
Wind Speed 8 mph (SE)    
Max Wind Speed 18 mph    
Max Gust Speed 23 mph    
Visibility 10 miles    
Events      
T = Trace of Precipitation, MM = Missing Value Source: NWS Daily Summary

Daily Weather History Graph

Daily Weather History Graph

Search for Another Location

Airport:

Trip Planner

Search our weather history database for the weather conditions in past years. The results will help you decide how hot, cold, wet, or windy it might be!

Date:

Astronomy

Mar. 07, 2013 Rise Set
Actual Time 6:16 AM MST 5:48 PM MST
Civil Twilight 5:48 AM MST 6:16 PM MST
Nautical Twilight 5:15 AM MST 6:49 PM MST
Astronomical Twilight 4:43 AM MST 7:21 PM MST
Moon 3:21 AM MST (3/7) 1:35 PM MST (3/7)
Length of Visible Light 12h 28m
Length of Day
11h 32m
Waning Crescent, 19% of the Moon is Illuminated
Mar 7
Waning Crescent
Mar 11
New
Mar 19
First Quarter
Mar 27
Full
Apr 2
Last Quarter

Hourly Weather History & Observations

Time (MST) Temp. Windchill Dew Point Humidity Pressure Visibility Wind Dir Wind Speed Gust Speed Precip Events Conditions
12:53 AM 21.9 °F 12.5 °F 19.9 °F 92% 29.93 in 10.0 mi South 8.1 mph - N/A   Clear
1:53 AM 24.1 °F 15.2 °F 21.9 °F 91% 29.90 in 10.0 mi SE 8.1 mph - N/A   Clear
2:53 AM 23.0 °F 13.9 °F 21.0 °F 92% 29.90 in 10.0 mi SSE 8.1 mph - N/A   Clear
3:53 AM 25.0 °F 15.5 °F 21.9 °F 88% 29.89 in 10.0 mi South 9.2 mph - N/A   Clear
4:53 AM 23.0 °F 14.7 °F 19.9 °F 88% 29.92 in 10.0 mi South 6.9 mph - N/A   Clear
5:53 AM 19.9 °F - 17.1 °F 89% 29.95 in 10.0 mi Calm Calm - N/A   Clear
6:53 AM 19.9 °F - 17.1 °F 89% 29.99 in 10.0 mi Calm Calm - N/A   Clear
7:53 AM 25.0 °F - 21.9 °F 88% 30.01 in 10.0 mi Calm Calm - N/A   Clear
8:53 AM 36.0 °F 32.1 °F 28.0 °F 73% 29.99 in 10.0 mi SW 4.6 mph - N/A   Clear
9:53 AM 46.0 °F 43.1 °F 27.0 °F 47% 29.96 in 10.0 mi Variable 5.8 mph - N/A   Scattered Clouds
10:53 AM 53.6 °F - 26.6 °F 35% 29.93 in 10.0 mi SSE 4.6 mph - N/A   Clear
11:53 AM 55.9 °F - 27.0 °F 33% 29.95 in 10.0 mi SSE 12.7 mph - N/A   Clear
12:53 PM 61.0 °F - 21.9 °F 22% 29.93 in 10.0 mi SSE 10.4 mph - N/A   Clear
1:53 PM 64.0 °F - 21.9 °F 20% 29.91 in 10.0 mi South 11.5 mph - N/A   Clear
2:53 PM 64.0 °F - 19.0 °F 18% 29.90 in 10.0 mi SSE 10.4 mph - N/A   Clear
3:53 PM 62.1 °F - 19.9 °F 20% 29.91 in 10.0 mi SSE 10.4 mph - N/A   Clear
4:53 PM 60.1 °F - 23.0 °F 24% 29.93 in 10.0 mi SE 8.1 mph - N/A   Clear
5:53 PM 51.1 °F - 28.0 °F 41% 29.99 in 10.0 mi NE 17.3 mph 23.0 mph N/A   Clear
6:03 PM 48.2 °F - 28.4 °F 46% 29.95 in 10.0 mi NE 11.5 mph - N/A   Clear
6:53 PM 43.0 °F 37.2 °F 28.0 °F 56% 30.05 in 10.0 mi NE 10.4 mph - N/A   Clear
7:53 PM 36.0 °F 29.0 °F 26.1 °F 67% 30.07 in 10.0 mi East 9.2 mph - N/A   Clear
8:53 PM 32.0 °F 23.6 °F 24.1 °F 73% 30.06 in 10.0 mi NNE 10.4 mph - N/A   Clear
9:53 PM 33.8 °F 27.0 °F 24.8 °F 70% 30.02 in 10.0 mi NE 8.1 mph - N/A   Clear
10:53 PM 30.0 °F 21.7 °F 23.0 °F 75% 30.03 in 10.0 mi NNE 9.2 mph - N/A   Clear
11:53 PM 25.0 °F - 21.0 °F 85% 30.06 in 10.0 mi Calm Calm - N/A   Clear